contact:dominique.lefevre@mio.osupytheas.fr, maurice.libes@osupytheas.fr, didier.mallarino@osupytheas.fr
Project:EMSO http://www.emso-fr.org/EMSO-France
Depth: 2436.0 m
Title:EMSO Ligure Ouest : Data MII capteur MICROCAT
DateTime_Computer,Latitude,Longitude,Temperature,Conductivity,Pressure,DateTime_Instrument
DateTime_Computer,Latitude,Longitude,degC,S m-1,dbar,DateTime_Instrument
2023-08-04T00:02:34Z,42.805,6.029,13.3047,4.60119,2470.777,2023-8-04T02:04:52Z
2023-08-04T00:05:37Z,42.805,6.029,13.3043,4.60126,2470.73,2023-8-04T02:07:55Z
2023-08-04T00:08:40Z,42.805,6.029,13.3052,4.60147,2470.754,2023-8-04T02:10:58Z
2023-08-04T00:11:43Z,42.805,6.029,13.3055,4.60147,2470.73,2023-8-04T02:14:02Z
2023-08-04T00:14:46Z,42.805,6.029,13.3061,4.60119,2470.73,2023-8-04T02:17:05Z
2023-08-04T00:17:49Z,42.805,6.029,13.3078,4.60180,2470.754,2023-8-04T02:20:08Z
2023-08-04T00:20:52Z,42.805,6.029,13.3063,4.60119,2470.693,2023-8-04T02:23:11Z
2023-08-04T00:23:56Z,42.805,6.029,13.3074,4.60125,2470.693,2023-8-04T02:26:14Z
2023-08-04T00:26:59Z,42.805,6.029,13.3046,4.60167,2470.693,2023-8-04T02:29:17Z
2023-08-04T00:30:02Z,42.805,6.029,13.3061,4.60166,2470.717,2023-8-04T02:32:20Z
2023-08-04T00:33:05Z,42.805,6.029,13.3096,4.60132,2470.717,2023-8-04T02:35:23Z
2023-08-04T00:36:08Z,42.805,6.029,13.3084,4.60148,2470.717,2023-8-04T02:38:26Z
2023-08-04T00:39:11Z,42.805,6.029,13.3077,4.60165,2470.67,2023-8-04T02:41:29Z
2023-08-04T00:42:14Z,42.805,6.029,13.3061,4.60129,2470.717,2023-8-04T02:44:32Z
2023-08-04T00:45:17Z,42.805,6.029,13.3069,4.60152,2470.707,2023-8-04T02:47:35Z
2023-08-04T00:48:20Z,42.805,6.029,13.3102,4.60169,2470.693,2023-8-04T02:50:38Z
2023-08-04T00:51:23Z,42.805,6.029,13.3085,4.60218,2470.707,2023-8-04T02:53:42Z
2023-08-04T00:54:26Z,42.805,6.029,13.3098,4.60187,2470.707,2023-8-04T02:56:45Z
2023-08-04T00:57:29Z,42.805,6.029,13.3070,4.60166,2470.693,2023-8-04T02:59:48Z
2023-08-04T01:00:32Z,42.805,6.029,13.3088,4.60130,2470.646,2023-8-04T03:02:51Z
2023-08-04T01:03:36Z,42.805,6.029,13.3091,4.60157,2470.684,2023-8-04T03:05:54Z
2023-08-04T01:06:39Z,42.805,6.029,13.3083,4.60160,2470.707,2023-8-04T03:08:57Z
2023-08-04T01:09:42Z,42.805,6.029,13.3049,4.60133,2470.684,2023-8-04T03:12:00Z
2023-08-04T01:12:45Z,42.805,6.029,13.3070,4.60176,2470.684,2023-8-04T03:15:03Z
2023-08-04T01:15:48Z,42.805,6.029,13.3082,4.60189,2470.684,2023-8-04T03:18:06Z
2023-08-04T01:18:51Z,42.805,6.029,13.3083,4.60160,2470.67,2023-8-04T03:21:09Z
2023-08-04T01:21:54Z,42.805,6.029,13.3073,4.60123,2470.684,2023-8-04T03:24:12Z
2023-08-04T01:24:57Z,42.805,6.029,13.3066,4.60148,2470.684,2023-8-04T03:27:15Z
2023-08-04T01:28:00Z,42.805,6.029,13.3093,4.60157,2470.661,2023-8-04T03:30:18Z
2023-08-04T01:31:03Z,42.805,6.029,13.3070,4.60140,2470.67,2023-8-04T03:33:22Z
2023-08-04T01:34:06Z,42.805,6.029,13.3078,4.60182,2470.707,2023-8-04T03:36:25Z
2023-08-04T01:37:09Z,42.805,6.029,13.3085,4.60134,2470.684,2023-8-04T03:39:28Z
2023-08-04T01:40:12Z,42.805,6.029,13.3085,4.60170,2470.637,2023-8-04T03:42:31Z
2023-08-04T01:43:15Z,42.805,6.029,13.3095,4.60143,2470.646,2023-8-04T03:45:34Z
2023-08-04T01:46:19Z,42.805,6.029,13.3077,4.60130,2470.624,2023-8-04T03:48:37Z
2023-08-04T01:49:22Z,42.805,6.029,13.3080,4.60169,2470.646,2023-8-04T03:51:40Z
2023-08-04T01:52:25Z,42.805,6.029,13.3078,4.60161,2470.646,2023-8-04T03:54:43Z
2023-08-04T01:55:28Z,42.805,6.029,13.3086,4.60144,2470.646,2023-8-04T03:57:46Z
2023-08-04T01:58:31Z,42.805,6.029,13.3091,4.60155,2470.646,2023-8-04T04:00:49Z
2023-08-04T02:01:34Z,42.805,6.029,13.3125,4.60143,2470.637,2023-8-04T04:03:52Z
2023-08-04T02:04:37Z,42.805,6.029,13.3131,4.60127,2470.614,2023-8-04T04:06:55Z
2023-08-04T02:07:40Z,42.805,6.029,13.3121,4.60125,2470.624,2023-8-04T04:09:58Z
2023-08-04T02:10:43Z,42.805,6.029,13.3125,4.60111,2470.67,2023-8-04T04:13:02Z
2023-08-04T02:13:46Z,42.805,6.029,13.3111,4.60170,2470.614,2023-8-04T04:16:05Z
2023-08-04T02:16:49Z,42.805,6.029,13.3108,4.60137,2470.646,2023-8-04T04:19:08Z
2023-08-04T02:19:52Z,42.805,6.029,13.3100,4.60129,2470.637,2023-8-04T04:22:11Z
2023-08-04T02:22:55Z,42.805,6.029,13.3073,4.60145,2470.637,2023-8-04T04:25:14Z
2023-08-04T02:25:59Z,42.805,6.029,13.3086,4.60131,2470.624,2023-8-04T04:28:17Z
2023-08-04T02:29:02Z,42.805,6.029,13.3073,4.60142,2470.6,2023-8-04T04:31:20Z
2023-08-04T02:32:05Z,42.805,6.029,13.3098,4.60115,2470.637,2023-8-04T04:34:23Z
2023-08-04T02:35:08Z,42.805,6.029,13.3103,4.60122,2470.637,2023-8-04T04:37:26Z
2023-08-04T02:38:11Z,42.805,6.029,13.3099,4.60142,2470.614,2023-8-04T04:40:29Z
2023-08-04T02:41:14Z,42.805,6.029,13.3098,4.60137,2470.61,2023-8-04T04:43:32Z
2023-08-04T02:44:17Z,42.805,6.029,13.3095,4.60116,2470.624,2023-8-04T04:46:35Z
2023-08-04T02:47:20Z,42.805,6.029,13.3088,4.60142,2470.577,2023-8-04T04:49:38Z
2023-08-04T02:50:23Z,42.805,6.029,13.3135,4.60118,2470.614,2023-8-04T04:52:42Z
2023-08-04T02:53:26Z,42.805,6.029,13.3128,4.60132,2470.614,2023-8-04T04:55:45Z
2023-08-04T02:56:29Z,42.805,6.029,13.3093,4.60104,2470.591,2023-8-04T04:58:48Z
2023-08-04T02:59:32Z,42.805,6.029,13.3080,4.60113,2470.591,2023-8-04T05:01:51Z
2023-08-04T03:02:35Z,42.805,6.029,13.3067,4.60105,2470.614,2023-8-04T05:04:54Z
2023-08-04T03:05:39Z,42.805,6.029,13.3091,4.60116,2470.591,2023-8-04T05:07:57Z
2023-08-04T03:08:42Z,42.805,6.029,13.3073,4.60107,2470.614,2023-8-04T05:11:00Z
2023-08-04T03:11:45Z,42.805,6.029,13.3077,4.60121,2470.577,2023-8-04T05:14:03Z
2023-08-04T03:14:48Z,42.805,6.029,13.3078,4.60101,2470.6,2023-8-04T05:17:06Z
2023-08-04T03:17:51Z,42.805,6.029,13.3082,4.60146,2470.577,2023-8-04T05:20:09Z
2023-08-04T03:20:54Z,42.805,6.029,13.3081,4.60127,2470.6,2023-8-04T05:23:12Z
2023-08-04T03:23:57Z,42.805,6.029,13.3074,4.60119,2470.567,2023-8-04T05:26:15Z
2023-08-04T03:27:00Z,42.805,6.029,13.3077,4.60116,2470.553,2023-8-04T05:29:18Z
2023-08-04T03:30:03Z,42.805,6.029,13.3027,4.60097,2470.577,2023-8-04T05:32:21Z
2023-08-04T03:33:06Z,42.805,6.029,13.3039,4.60130,2470.553,2023-8-04T05:35:25Z
2023-08-04T03:36:09Z,42.805,6.029,13.3067,4.60102,2470.553,2023-8-04T05:38:28Z
2023-08-04T03:39:12Z,42.805,6.029,13.3041,4.60104,2470.577,2023-8-04T05:41:31Z
2023-08-04T03:42:15Z,42.805,6.029,13.3051,4.60117,2470.553,2023-8-04T05:44:34Z
2023-08-04T03:45:18Z,42.805,6.029,13.3051,4.60127,2470.567,2023-8-04T05:47:37Z
2023-08-04T03:48:22Z,42.805,6.029,13.3061,4.60120,2470.591,2023-8-04T05:50:40Z
2023-08-04T03:51:25Z,42.805,6.029,13.3063,4.60108,2470.614,2023-8-04T05:53:43Z
2023-08-04T03:54:28Z,42.805,6.029,13.3058,4.60101,2470.577,2023-8-04T05:56:46Z
2023-08-04T03:57:31Z,42.805,6.029,13.3067,4.60115,2470.577,2023-8-04T05:59:49Z
2023-08-04T04:00:34Z,42.805,6.029,13.3069,4.60114,2470.591,2023-8-04T06:02:52Z
2023-08-04T04:03:37Z,42.805,6.029,13.3067,4.60137,2470.591,2023-8-04T06:05:55Z
2023-08-04T04:06:40Z,42.805,6.029,13.3069,4.60115,2470.567,2023-8-04T06:08:58Z
2023-08-04T04:09:43Z,42.805,6.029,13.3077,4.60114,2470.567,2023-8-04T06:12:01Z
2023-08-04T04:12:46Z,42.805,6.029,13.3072,4.60104,2470.577,2023-8-04T06:15:05Z
2023-08-04T04:15:49Z,42.805,6.029,13.3075,4.60100,2470.577,2023-8-04T06:18:08Z
2023-08-04T04:18:52Z,42.805,6.029,13.3071,4.60102,2470.553,2023-8-04T06:21:11Z
2023-08-04T04:21:55Z,42.805,6.029,13.3069,4.60125,2470.6,2023-8-04T06:24:14Z
2023-08-04T04:24:58Z,42.805,6.029,13.3090,4.60149,2470.567,2023-8-04T06:27:17Z
2023-08-04T04:28:02Z,42.805,6.029,13.3058,4.60129,2470.577,2023-8-04T06:30:20Z
2023-08-04T04:31:05Z,42.805,6.029,13.3105,4.60139,2470.577,2023-8-04T06:33:23Z
2023-08-04T04:34:08Z,42.805,6.029,13.3083,4.60112,2470.567,2023-8-04T06:36:26Z
2023-08-04T04:37:11Z,42.805,6.029,13.3076,4.60115,2470.591,2023-8-04T06:39:29Z
2023-08-04T04:40:14Z,42.805,6.029,13.3071,4.60099,2470.553,2023-8-04T06:42:32Z
2023-08-04T04:43:17Z,42.805,6.029,13.3074,4.60100,2470.591,2023-8-04T06:45:35Z
2023-08-04T04:46:20Z,42.805,6.029,13.3075,4.60104,2470.614,2023-8-04T06:48:38Z
2023-08-04T04:49:23Z,42.805,6.029,13.3076,4.60122,2470.577,2023-8-04T06:51:41Z
2023-08-04T04:52:26Z,42.805,6.029,13.3069,4.60112,2470.591,2023-8-04T06:54:45Z
2023-08-04T04:55:29Z,42.805,6.029,13.3078,4.60119,2470.6,2023-8-04T06:57:48Z
2023-08-04T04:58:32Z,42.805,6.029,13.3042,4.60102,2470.614,2023-8-04T07:00:51Z
2023-08-04T05:01:35Z,42.805,6.029,13.3044,4.60102,2470.637,2023-8-04T07:03:54Z
2023-08-04T05:04:38Z,42.805,6.029,13.3042,4.60097,2470.6,2023-8-04T07:06:57Z
2023-08-04T05:07:42Z,42.805,6.029,13.3029,4.60094,2470.6,2023-8-04T07:10:00Z
2023-08-04T05:10:45Z,42.805,6.029,13.3029,4.60109,2470.614,2023-8-04T07:13:03Z
2023-08-04T05:13:48Z,42.805,6.029,13.3031,4.60102,2470.637,2023-8-04T07:16:06Z
2023-08-04T05:16:51Z,42.805,6.029,13.3026,4.60097,2470.6,2023-8-04T07:19:09Z
2023-08-04T05:19:54Z,42.805,6.029,13.3028,4.60102,2470.6,2023-8-04T07:22:12Z
2023-08-04T05:22:57Z,42.805,6.029,13.3026,4.60099,2470.614,2023-8-04T07:25:15Z
2023-08-04T05:26:00Z,42.805,6.029,13.3039,4.60098,2470.637,2023-8-04T07:28:18Z
2023-08-04T05:29:03Z,42.805,6.029,13.3044,4.60104,2470.624,2023-8-04T07:31:21Z
2023-08-04T05:32:06Z,42.805,6.029,13.3048,4.60101,2470.6,2023-8-04T07:34:24Z
2023-08-04T05:35:09Z,42.805,6.029,13.3031,4.60093,2470.6,2023-8-04T07:37:28Z
2023-08-04T05:38:12Z,42.805,6.029,13.3026,4.60097,2470.637,2023-8-04T07:40:31Z
2023-08-04T05:41:15Z,42.805,6.029,13.3043,4.60103,2470.6,2023-8-04T07:43:34Z
2023-08-04T05:44:18Z,42.805,6.029,13.3045,4.60104,2470.614,2023-8-04T07:46:37Z
2023-08-04T05:47:21Z,42.805,6.029,13.3026,4.60094,2470.646,2023-8-04T07:49:40Z
2023-08-04T05:50:25Z,42.805,6.029,13.3059,4.60092,2470.661,2023-8-04T07:52:43Z
2023-08-04T05:53:28Z,42.805,6.029,13.3054,4.60093,2470.646,2023-8-04T07:55:46Z
2023-08-04T05:56:31Z,42.805,6.029,13.3036,4.60089,2470.624,2023-8-04T07:58:49Z
2023-08-04T05:59:34Z,42.805,6.029,13.3031,4.60099,2470.646,2023-8-04T08:01:52Z
2023-08-04T06:02:37Z,42.805,6.029,13.3051,4.60094,2470.646,2023-8-04T08:04:55Z
2023-08-04T06:05:40Z,42.805,6.029,13.3096,4.60119,2470.646,2023-8-04T08:07:58Z
2023-08-04T06:08:43Z,42.805,6.029,13.3032,4.60099,2470.646,2023-8-04T08:11:01Z
2023-08-04T06:11:46Z,42.805,6.029,13.3031,4.60099,2470.624,2023-8-04T08:14:04Z
2023-08-04T06:14:49Z,42.805,6.029,13.3029,4.60090,2470.646,2023-8-04T08:17:08Z
2023-08-04T06:17:52Z,42.805,6.029,13.3026,4.60094,2470.661,2023-8-04T08:20:11Z
2023-08-04T06:20:55Z,42.805,6.029,13.3046,4.60110,2470.646,2023-8-04T08:23:14Z
2023-08-04T06:23:58Z,42.805,6.029,13.3051,4.60139,2470.646,2023-8-04T08:26:17Z
2023-08-04T06:27:02Z,42.805,6.029,13.3053,4.60132,2470.684,2023-8-04T08:29:20Z
2023-08-04T06:30:09Z,42.805,6.029,13.3063,4.60116,2470.646,2023-8-04T08:32:23Z
2023-08-04T06:33:08Z,42.805,6.029,13.3063,4.60107,2470.624,2023-8-04T08:35:26Z
2023-08-04T06:36:11Z,42.805,6.029,13.3085,4.60122,2470.693,2023-8-04T08:38:29Z
2023-08-04T06:39:14Z,42.805,6.029,13.3076,4.60127,2470.707,2023-8-04T08:41:32Z
2023-08-04T06:42:17Z,42.805,6.029,13.3069,4.60150,2470.707,2023-8-04T08:44:35Z
2023-08-04T06:45:20Z,42.805,6.029,13.3059,4.60110,2470.693,2023-8-04T08:47:38Z
2023-08-04T06:48:23Z,42.805,6.029,13.3087,4.60109,2470.684,2023-8-04T08:50:42Z
2023-08-04T06:51:26Z,42.805,6.029,13.3073,4.60102,2470.684,2023-8-04T08:53:45Z
2023-08-04T06:54:29Z,42.805,6.029,13.3047,4.60138,2470.73,2023-8-04T08:56:48Z
2023-08-04T06:57:32Z,42.805,6.029,13.3029,4.60099,2470.693,2023-8-04T08:59:51Z
2023-08-04T07:00:35Z,42.805,6.029,13.3048,4.60107,2470.717,2023-8-04T09:02:54Z
2023-08-04T07:03:39Z,42.805,6.029,13.3037,4.60087,2470.717,2023-8-04T09:05:57Z
2023-08-04T07:06:42Z,42.805,6.029,13.3024,4.60092,2470.693,2023-8-04T09:09:00Z
2023-08-04T07:09:45Z,42.805,6.029,13.3046,4.60125,2470.693,2023-8-04T09:12:03Z
2023-08-04T07:12:48Z,42.805,6.029,13.3038,4.60102,2470.707,2023-8-04T09:15:06Z
2023-08-04T07:15:51Z,42.805,6.029,13.3039,4.60094,2470.717,2023-8-04T09:18:09Z
2023-08-04T07:18:54Z,42.805,6.029,13.3023,4.60092,2470.707,2023-8-04T09:21:12Z
2023-08-04T07:21:57Z,42.805,6.029,13.3027,4.60107,2470.717,2023-8-04T09:24:15Z
2023-08-04T07:25:00Z,42.805,6.029,13.3034,4.60098,2470.73,2023-8-04T09:27:18Z
2023-08-04T07:28:03Z,42.805,6.029,13.3030,4.60112,2470.717,2023-8-04T09:30:21Z
2023-08-04T07:31:06Z,42.805,6.029,13.3027,4.60144,2470.717,2023-8-04T09:33:25Z
2023-08-04T07:34:09Z,42.805,6.029,13.3067,4.60104,2470.754,2023-8-04T09:36:28Z
2023-08-04T07:37:12Z,42.805,6.029,13.3074,4.60125,2470.74,2023-8-04T09:39:31Z
2023-08-04T07:40:15Z,42.805,6.029,13.3067,4.60131,2470.754,2023-8-04T09:42:34Z
2023-08-04T07:43:19Z,42.805,6.029,13.3067,4.60107,2470.717,2023-8-04T09:45:37Z
2023-08-04T07:46:22Z,42.805,6.029,13.3078,4.60107,2470.693,2023-8-04T09:48:40Z
2023-08-04T07:49:25Z,42.805,6.029,13.3063,4.60116,2470.707,2023-8-04T09:51:43Z
2023-08-04T07:52:28Z,42.805,6.029,13.3074,4.60119,2470.693,2023-8-04T09:54:46Z
2023-08-04T07:55:31Z,42.805,6.029,13.3078,4.60110,2470.74,2023-8-04T09:57:49Z
2023-08-04T07:58:34Z,42.805,6.029,13.3068,4.60136,2470.74,2023-8-04T10:00:52Z
2023-08-04T08:01:37Z,42.805,6.029,13.3078,4.60108,2470.763,2023-8-04T10:03:55Z
2023-08-04T08:04:40Z,42.805,6.029,13.3063,4.60114,2470.754,2023-8-04T10:06:58Z
2023-08-04T08:07:43Z,42.805,6.029,13.3072,4.60122,2470.717,2023-8-04T10:10:02Z
2023-08-04T08:10:46Z,42.805,6.029,13.3083,4.60132,2470.74,2023-8-04T10:13:05Z
2023-08-04T08:13:49Z,42.805,6.029,13.3070,4.60139,2470.74,2023-8-04T10:16:08Z
2023-08-04T08:16:52Z,42.805,6.029,13.3057,4.60119,2470.754,2023-8-04T10:19:11Z
2023-08-04T08:19:55Z,42.805,6.029,13.3063,4.60125,2470.717,2023-8-04T10:22:14Z
2023-08-04T08:22:59Z,42.805,6.029,13.3068,4.60165,2470.74,2023-8-04T10:25:17Z
2023-08-04T08:26:02Z,42.805,6.029,13.3068,4.60145,2470.74,2023-8-04T10:28:20Z
2023-08-04T08:29:05Z,42.805,6.029,13.3082,4.60140,2470.73,2023-8-04T10:31:23Z
2023-08-04T08:32:06Z,42.805,6.029,13.3075,4.60129,2470.73,2023-8-04T10:34:25Z
2023-08-04T08:35:09Z,42.805,6.029,13.3070,4.60114,2470.74,2023-8-04T10:37:28Z
2023-08-04T08:38:13Z,42.805,6.029,13.3067,4.60132,2470.73,2023-8-04T10:40:31Z
2023-08-04T08:41:16Z,42.805,6.029,13.3065,4.60117,2470.777,2023-8-04T10:43:34Z
2023-08-04T08:44:19Z,42.805,6.029,13.3067,4.60127,2470.73,2023-8-04T10:46:37Z
2023-08-04T08:47:22Z,42.805,6.029,13.3088,4.60117,2470.74,2023-8-04T10:49:40Z
2023-08-04T08:50:25Z,42.805,6.029,13.3074,4.60119,2470.8,2023-8-04T10:52:43Z
2023-08-04T08:53:28Z,42.805,6.029,13.3065,4.60114,2470.74,2023-8-04T10:55:46Z
2023-08-04T08:56:31Z,42.805,6.029,13.3070,4.60146,2470.754,2023-8-04T10:58:49Z
2023-08-04T08:59:34Z,42.805,6.029,13.3069,4.60110,2470.763,2023-8-04T11:01:52Z
2023-08-04T09:02:37Z,42.805,6.029,13.3063,4.60143,2470.754,2023-8-04T11:04:56Z
2023-08-04T09:05:40Z,42.805,6.029,13.3081,4.60129,2470.74,2023-8-04T11:07:59Z
2023-08-04T09:08:43Z,42.805,6.029,13.3068,4.60135,2470.777,2023-8-04T11:11:02Z
2023-08-04T09:11:46Z,42.805,6.029,13.3068,4.60149,2470.703,2023-8-04T11:14:05Z
2023-08-04T09:14:50Z,42.805,6.029,13.3063,4.60131,2470.74,2023-8-04T11:17:08Z
2023-08-04T09:17:53Z,42.805,6.029,13.3058,4.60121,2470.74,2023-8-04T11:20:11Z
2023-08-04T09:20:56Z,42.805,6.029,13.3051,4.60118,2470.763,2023-8-04T11:23:14Z
2023-08-04T09:23:59Z,42.805,6.029,13.3071,4.60119,2470.717,2023-8-04T11:26:17Z
2023-08-04T09:27:02Z,42.805,6.029,13.3079,4.60121,2470.717,2023-8-04T11:29:20Z
2023-08-04T09:30:05Z,42.805,6.029,13.3084,4.60134,2470.754,2023-8-04T11:32:23Z
2023-08-04T09:33:08Z,42.805,6.029,13.3063,4.60114,2470.74,2023-8-04T11:35:26Z
2023-08-04T09:36:11Z,42.805,6.029,13.3049,4.60152,2470.754,2023-8-04T11:38:29Z
2023-08-04T09:39:14Z,42.805,6.029,13.3058,4.60157,2470.717,2023-8-04T11:41:33Z
2023-08-04T09:42:17Z,42.805,6.029,13.3052,4.60150,2470.693,2023-8-04T11:44:36Z
2023-08-04T09:45:20Z,42.805,6.029,13.3059,4.60145,2470.726,2023-8-04T11:47:39Z
2023-08-04T09:48:23Z,42.805,6.029,13.3064,4.60128,2470.717,2023-8-04T11:50:42Z
2023-08-04T09:51:26Z,42.805,6.029,13.3068,4.60155,2470.74,2023-8-04T11:53:45Z
2023-08-04T09:54:30Z,42.805,6.029,13.3058,4.60188,2470.693,2023-8-04T11:56:48Z
2023-08-04T09:57:33Z,42.805,6.029,13.3064,4.60145,2470.707,2023-8-04T11:59:51Z
2023-08-04T10:00:36Z,42.805,6.029,13.3069,4.60114,2470.73,2023-8-04T12:02:54Z
2023-08-04T10:03:39Z,42.805,6.029,13.3060,4.60128,2470.73,2023-8-04T12:05:57Z
2023-08-04T10:06:42Z,42.805,6.029,13.3056,4.60148,2470.74,2023-8-04T12:09:00Z
2023-08-04T10:09:45Z,42.805,6.029,13.3054,4.60152,2470.67,2023-8-04T12:12:03Z
2023-08-04T10:12:48Z,42.805,6.029,13.3051,4.60143,2470.693,2023-8-04T12:15:06Z
2023-08-04T10:15:51Z,42.805,6.029,13.3060,4.60204,2470.717,2023-8-04T12:18:10Z
2023-08-04T10:18:54Z,42.805,6.029,13.3058,4.60170,2470.684,2023-8-04T12:21:13Z
2023-08-04T10:21:57Z,42.805,6.029,13.3053,4.60162,2470.717,2023-8-04T12:24:16Z
2023-08-04T10:25:00Z,42.805,6.029,13.3066,4.60146,2470.693,2023-8-04T12:27:19Z
2023-08-04T10:28:03Z,42.805,6.029,13.3064,4.60180,2470.74,2023-8-04T12:30:22Z
2023-08-04T10:31:05Z,42.805,6.029,13.3061,4.60172,2470.67,2023-8-04T12:33:23Z
2023-08-04T10:34:08Z,42.805,6.029,13.3059,4.60126,2470.693,2023-8-04T12:36:27Z
2023-08-04T10:37:11Z,42.805,6.029,13.3055,4.60192,2470.693,2023-8-04T12:39:30Z
2023-08-04T10:40:14Z,42.805,6.029,13.3061,4.60176,2470.684,2023-8-04T12:42:33Z
2023-08-04T10:43:17Z,42.805,6.029,13.3071,4.60129,2470.67,2023-8-04T12:45:36Z
2023-08-04T10:46:20Z,42.805,6.029,13.3076,4.60129,2470.707,2023-8-04T12:48:39Z
2023-08-04T10:49:24Z,42.805,6.029,13.3076,4.60119,2470.707,2023-8-04T12:51:42Z
2023-08-04T10:52:27Z,42.805,6.029,13.3066,4.60127,2470.67,2023-8-04T12:54:45Z
2023-08-04T10:55:30Z,42.805,6.029,13.3074,4.60109,2470.67,2023-8-04T12:57:48Z
2023-08-04T10:58:33Z,42.805,6.029,13.3067,4.60104,2470.717,2023-8-04T13:00:51Z
2023-08-04T11:01:36Z,42.805,6.029,13.3062,4.60107,2470.684,2023-8-04T13:03:54Z
2023-08-04T11:04:39Z,42.805,6.029,13.3058,4.60110,2470.67,2023-8-04T13:06:57Z
2023-08-04T11:07:42Z,42.805,6.029,13.3071,4.60135,2470.646,2023-8-04T13:10:00Z
2023-08-04T11:10:45Z,42.805,6.029,13.3058,4.60125,2470.67,2023-8-04T13:13:03Z
2023-08-04T11:13:48Z,42.805,6.029,13.3063,4.60142,2470.693,2023-8-04T13:16:07Z
2023-08-04T11:16:51Z,42.805,6.029,13.3064,4.60115,2470.661,2023-8-04T13:19:10Z
2023-08-04T11:19:54Z,42.805,6.029,13.3076,4.60102,2470.67,2023-8-04T13:22:13Z
2023-08-04T11:22:57Z,42.805,6.029,13.3080,4.60119,2470.684,2023-8-04T13:25:16Z
2023-08-04T11:26:00Z,42.805,6.029,13.3079,4.60116,2470.661,2023-8-04T13:28:19Z
2023-08-04T11:29:04Z,42.805,6.029,13.3069,4.60109,2470.684,2023-8-04T13:31:22Z
2023-08-04T11:32:07Z,42.805,6.029,13.3067,4.60118,2470.646,2023-8-04T13:34:25Z
2023-08-04T11:35:10Z,42.805,6.029,13.3082,4.60106,2470.646,2023-8-04T13:37:28Z
2023-08-04T11:38:13Z,42.805,6.029,13.3082,4.60111,2470.637,2023-8-04T13:40:31Z
2023-08-04T11:41:16Z,42.805,6.029,13.3073,4.60111,2470.661,2023-8-04T13:43:34Z
2023-08-04T11:44:19Z,42.805,6.029,13.3064,4.60114,2470.67,2023-8-04T13:46:37Z
2023-08-04T11:47:22Z,42.805,6.029,13.3066,4.60143,2470.637,2023-8-04T13:49:40Z
2023-08-04T11:50:25Z,42.805,6.029,13.3066,4.60137,2470.67,2023-8-04T13:52:44Z
2023-08-04T11:53:28Z,42.805,6.029,13.3073,4.60131,2470.661,2023-8-04T13:55:47Z
2023-08-04T11:56:31Z,42.805,6.029,13.3065,4.60143,2470.646,2023-8-04T13:58:50Z
2023-08-04T11:59:34Z,42.805,6.029,13.3061,4.60146,2470.684,2023-8-04T14:01:53Z
2023-08-04T12:02:37Z,42.805,6.029,13.3076,4.60144,2470.661,2023-8-04T14:04:56Z
2023-08-04T12:05:41Z,42.805,6.029,13.3084,4.60122,2470.624,2023-8-04T14:07:59Z
2023-08-04T12:08:44Z,42.805,6.029,13.3093,4.60146,2470.624,2023-8-04T14:11:02Z
2023-08-04T12:11:47Z,42.805,6.029,13.3085,4.60135,2470.646,2023-8-04T14:14:05Z
2023-08-04T12:14:50Z,42.805,6.029,13.3087,4.60114,2470.661,2023-8-04T14:17:08Z
2023-08-04T12:17:53Z,42.805,6.029,13.3056,4.60136,2470.661,2023-8-04T14:20:11Z
2023-08-04T12:20:56Z,42.805,6.029,13.3086,4.60107,2470.684,2023-8-04T14:23:14Z
2023-08-04T12:23:59Z,42.805,6.029,13.3125,4.60107,2470.661,2023-8-04T14:26:17Z
2023-08-04T12:27:02Z,42.805,6.029,13.3069,4.60104,2470.646,2023-8-04T14:29:21Z
2023-08-04T12:30:05Z,42.805,6.029,13.3046,4.60102,2470.6,2023-8-04T14:32:24Z
2023-08-04T12:33:08Z,42.805,6.029,13.3033,4.60099,2470.624,2023-8-04T14:35:27Z
2023-08-04T12:36:11Z,42.805,6.029,13.3042,4.60095,2470.661,2023-8-04T14:38:30Z
2023-08-04T12:39:14Z,42.805,6.029,13.3181,4.60096,2470.6,2023-8-04T14:41:33Z
2023-08-04T12:42:18Z,42.805,6.029,13.3100,4.60099,2470.6,2023-8-04T14:44:36Z
2023-08-04T12:45:21Z,42.805,6.029,13.3041,4.60101,2470.6,2023-8-04T14:47:39Z
2023-08-04T12:48:24Z,42.805,6.029,13.3139,4.60099,2470.637,2023-8-04T14:50:42Z
2023-08-04T12:51:27Z,42.805,6.029,13.3093,4.60097,2470.6,2023-8-04T14:53:45Z
2023-08-04T12:54:30Z,42.805,6.029,13.3046,4.60100,2470.6,2023-8-04T14:56:48Z
2023-08-04T12:57:33Z,42.805,6.029,13.3038,4.60105,2470.624,2023-8-04T14:59:51Z
2023-08-04T13:00:36Z,42.805,6.029,13.3038,4.60109,2470.614,2023-8-04T15:02:54Z
2023-08-04T13:03:39Z,42.805,6.029,13.3045,4.60108,2470.624,2023-8-04T15:05:57Z
2023-08-04T13:06:42Z,42.805,6.029,13.3046,4.60104,2470.614,2023-8-04T15:09:01Z
2023-08-04T13:09:45Z,42.805,6.029,13.3043,4.60101,2470.624,2023-8-04T15:12:04Z
2023-08-04T13:12:48Z,42.805,6.029,13.3039,4.60101,2470.614,2023-8-04T15:15:07Z
2023-08-04T13:15:51Z,42.805,6.029,13.3036,4.60100,2470.614,2023-8-04T15:18:10Z
2023-08-04T13:18:54Z,42.805,6.029,13.3039,4.60100,2470.6,2023-8-04T15:21:13Z
2023-08-04T13:21:58Z,42.805,6.029,13.3034,4.60108,2470.6,2023-8-04T15:24:16Z
2023-08-04T13:25:01Z,42.805,6.029,13.3085,4.60104,2470.577,2023-8-04T15:27:19Z
2023-08-04T13:28:04Z,42.805,6.029,13.3040,4.60109,2470.614,2023-8-04T15:30:22Z
2023-08-04T13:31:07Z,42.805,6.029,13.3041,4.60112,2470.6,2023-8-04T15:33:25Z
2023-08-04T13:34:10Z,42.805,6.029,13.3044,4.60121,2470.591,2023-8-04T15:36:28Z
2023-08-04T13:37:13Z,42.805,6.029,13.3058,4.60145,2470.6,2023-8-04T15:39:31Z
2023-08-04T13:40:16Z,42.805,6.029,13.3037,4.60120,2470.577,2023-8-04T15:42:34Z
2023-08-04T13:43:19Z,42.805,6.029,13.3043,4.60148,2470.591,2023-8-04T15:45:38Z
2023-08-04T13:46:22Z,42.805,6.029,13.3036,4.60156,2470.553,2023-8-04T15:48:41Z
2023-08-04T13:49:25Z,42.805,6.029,13.3039,4.60116,2470.6,2023-8-04T15:51:44Z
2023-08-04T13:52:28Z,42.805,6.029,13.3036,4.60128,2470.6,2023-8-04T15:54:47Z
2023-08-04T13:55:31Z,42.805,6.029,13.3038,4.60110,2470.591,2023-8-04T15:57:50Z
2023-08-04T13:58:35Z,42.805,6.029,13.3037,4.60109,2470.591,2023-8-04T16:00:53Z
2023-08-04T14:01:38Z,42.805,6.029,13.3036,4.60098,2470.614,2023-8-04T16:03:56Z
2023-08-04T14:04:41Z,42.805,6.029,13.3034,4.60097,2470.577,2023-8-04T16:06:59Z
2023-08-04T14:07:44Z,42.805,6.029,13.3036,4.60101,2470.577,2023-8-04T16:10:02Z
2023-08-04T14:10:47Z,42.805,6.029,13.3043,4.60104,2470.6,2023-8-04T16:13:05Z
2023-08-04T14:13:50Z,42.805,6.029,13.3047,4.60109,2470.553,2023-8-04T16:16:08Z
2023-08-04T14:16:53Z,42.805,6.029,13.3036,4.60104,2470.544,2023-8-04T16:19:11Z
2023-08-04T14:19:56Z,42.805,6.029,13.3042,4.60101,2470.591,2023-8-04T16:22:14Z
2023-08-04T14:22:59Z,42.805,6.029,13.3041,4.60110,2470.577,2023-8-04T16:25:18Z
2023-08-04T14:26:02Z,42.805,6.029,13.3033,4.60099,2470.53,2023-8-04T16:28:21Z
2023-08-04T14:29:05Z,42.805,6.029,13.3035,4.60097,2470.553,2023-8-04T16:31:24Z
2023-08-04T14:32:08Z,42.805,6.029,13.3034,4.60100,2470.553,2023-8-04T16:34:26Z
2023-08-04T14:35:11Z,42.805,6.029,13.3037,4.60094,2470.553,2023-8-04T16:37:29Z
2023-08-04T14:38:14Z,42.805,6.029,13.3039,4.60093,2470.553,2023-8-04T16:40:32Z
2023-08-04T14:41:17Z,42.805,6.029,13.3036,4.60094,2470.553,2023-8-04T16:43:35Z
2023-08-04T14:44:20Z,42.805,6.029,13.3039,4.60096,2470.53,2023-8-04T16:46:38Z
2023-08-04T14:47:23Z,42.805,6.029,13.3035,4.60099,2470.591,2023-8-04T16:49:41Z
2023-08-04T14:50:26Z,42.805,6.029,13.3031,4.60097,2470.53,2023-8-04T16:52:45Z
2023-08-04T14:53:29Z,42.805,6.029,13.3029,4.60093,2470.553,2023-8-04T16:55:48Z
2023-08-04T14:56:32Z,42.805,6.029,13.3028,4.60092,2470.53,2023-8-04T16:58:51Z
2023-08-04T14:59:35Z,42.805,6.029,13.3036,4.60094,2470.567,2023-8-04T17:01:54Z
2023-08-04T15:02:39Z,42.805,6.029,13.3029,4.60092,2470.507,2023-8-04T17:04:57Z
2023-08-04T15:05:42Z,42.805,6.029,13.3030,4.60092,2470.53,2023-8-04T17:08:00Z
2023-08-04T15:08:45Z,42.805,6.029,13.3030,4.60094,2470.53,2023-8-04T17:11:03Z
2023-08-04T15:11:48Z,42.805,6.029,13.3029,4.60091,2470.53,2023-8-04T17:14:06Z
2023-08-04T15:14:51Z,42.805,6.029,13.3036,4.60092,2470.591,2023-8-04T17:17:09Z